Location: ČR
(50.0000°N, 15.0000°E)
Time: 19:53:13
(UTC+00:00)

Vanguard 3 - Pass Details

Date: 24 October 2021
Orbit: 508 x 3260 km, 33.4° (Epoch: 04 December)

Event Time Altitude Azimuth Distance (km) Brightness Sun altitude
Rises 20:07:04 0° 258° (WSW) 4,443 11.4 -40.3°
Reaches altitude 10° 20:10:18 10° 245° (WSW) 3,840 10.8 -40.7°
Enters shadow 20:16:04 24° 211° (SSW) 3,465 10.2 -41.4°
Maximum altitude 20:18:24 25° 195° (SSW) 3,597 - -41.7°
Drops below altitude 10° 20:29:57 10° 149° (SSE) 5,612 - -43.1°
Sets 20:36:08 0° 139° (SE) 6,957 - -43.9°
